User: anonymous   Login
Location: Unspecified
(0.0000°N, 0.0000°E)
Time: 16:19:16
(UTC+00:00)
Language:

DMSP F15 (USA 147) - Orbit

View from above orbital plane
View from above orbital plane
View from above satellite
View from above satellite

Ground track
Ground track

The orbit data is extracted from the following two-line orbital elements,

1 25991U 99067A   18257.14613186 0.00000000  00000-0  00000-0 0    03
2 25991  98.8764 216.8713 0011069 131.2303 228.7696 14.16556823    09
Epoch (UTC): 14 September 2018 03:30:25
Eccentricity: 0.0011069
inclination: 98.8764°
perigee height: 829 km
apogee height: 845 km
right ascension of ascending node: 216.8713°
argument of perigee: 131.2303°
revolutions per day: 14.16556823
mean anomaly at epoch: 228.7696°
orbit number at epoch: 0

The dashed part of the orbit path shows where the satellite is in the earth's shadow,  

DLR